Temperature
17 17 17 17 17 17 17 17 17 17 17 17 17 17 17 17 17 17 17 17 17 17 16 16 16 16 16 16 16 16 16 16 16 16 16 16 16 16 16 15 15 15 15
17 17 17 17 17 17 17 17 17 17 17 17 17 17 17 17 16 16 16 17 17 17 17 16 16 16 16 16 16 16 16 16 16 16 16 16 16 16 16 15 15 15 15
17 17 17 17 17 17 17 17 17 17 17 17 17 17 17 16 16 16 16 16 16 17 17 16 16 16 16 16 16 16 16 16 16 16 16 16 16 16 15 15 15 15 15
17 17 17 17 17 17 17 17 17 17 17 17 17 17 17 17 16 16 16 16 16 16 16 17 16 16 16 16 16 16 16 16 16 16 16 16 16 15 15 15 15 15 15
17 17 17 17 17 17 17 17 17 17 17 17 17 17 17 17 16 16 16 16 16 16 16 16 17 17 16 16 16 16 16 16 16 16 16 16 16 16 15 15 15 15 15
17 17 17 17 17 17 17 17 17 17 17 17 18 17 17 17 17 17 17 17 16 16 16 16 16 16 17 16 16 16 16 16 16 16 16 16 16 15 15 15 15 15 15
17 17 17 17 17 17 17 17 17 17 17 17 17 17 17 17 17 17 17 17 17 16 16 16 16 16 16 16 16 16 16 16 16 16 16 16 16 15 15 15 15 15 15
17 17 17 17 17 17 17 17 17 17 17 17 17 18 18 18 17 18 17 17 17 17 17 16 16 16 16 16 16 16 16 16 16 16 16 16 16 15 15 15 15 15 15
17 17 17 17 17 17 17 17 17 17 17 17 17 18 18 19 19 18 17 17 17 17 17 17 16 16 16 16 16 16 16 16 16 16 16 16 16 16 15 15 15 15 15
17 17 17 17 17 17 17 17 17 17 17 17 17 17 17 18 18 19 18 18 17 17 17 17 17 16 16 16 16 16 16 16 16 16 16 16 16 16 15 15 15 15 15
17 17 17 17 17 17 17 17 17 17 17 17 17 17 17 17 17 18 18 18 18 18 17 17 17 17 17 16 16 16 16 16 16 16 16 16 16 16 15 15 15 15 15
17 17 17 17 17 17 17 17 17 17 17 17 17 17 17 18 18 18 18 18 18 18 18 17 17 17 17 17 17 17 17 16 16 16 16 16 16 16 16 15 15 15 15
17 17 17 17 17 17 17 17 17 17 17 17 17 17 17 17 17 18 18 18 18 18 18 18 17 17 17 17 17 17 17 17 17 16 16 16 16 16 16 15 15 15 15
17 17 17 17 17 17 17 17 17 17 16 16 16 17 17 17 17 17 17 17 18 18 18 18 18 17 17 17 17 17 16 17 16 16 16 16 16 16 16 15 15 15 15
17 17 17 17 17 17 17 17 17 16 16 16 16 16 16 17 16 16 17 17 17 17 18 18 17 17 17 17 16 16 16 16 16 16 16 16 16 16 15 15 15 15 15
17 17 17 17 17 17 17 17 16 16 16 16 16 16 16 16 16 16 16 16 16 17 17 17 17 17 16 16 16 16 16 16 16 16 16 16 16 15 15 15 15 15 15
17 17 17 16 16 16 16 16 16 16 16 16 16 16 16 16 16 16 16 16 16 16 16 16 16 16 16 16 16 15 15 15 15 16 16 15 15 15 15 15 15 15 14
17 17 16 16 16 16 16 16 16 16 16 16 16 16 16 16 16 16 15 15 16 15 15 15 16 16 15 15 15 15 15 15 15 15 15 15 15 15 15 14 14 14 14
16 16 16 16 16 16 16 16 16 16 16 15 15 15 15 15 15 15 15 15 15 15 15 15 15 15 15 15 15 14 14 14 14 14 14 14 14 14 14 14 14 14 14
16 16 16 16 16 16 16 15 15 15 15 15 15 15 15 15 15 15 15 14 14 14 14 14 14 14 14 14 14 14 14 14 14 14 13 13 13 13 13 13 13 13 13
16 16 16 16 15 15 15 15 15 15 15 15 15 15 14 14 14 14 14 14 14 14 14 14 14 14 14 14 14 13 13 13 13 13 13 12 12 12 12 12 12 12 12
16 16 15 15 15 15 15 15 15 15 14 14 14 14 14 14 14 14 14 14 14 13 13 13 13 13 13 13 13 13 12 12 12 12 12 11 11 11 11 11 11 11 11
15 15 15 15 15 15 14 15 14 14 14 14 14 14 13 13 13 13 13 13 13 13 13 12 12 12 12 12 12 12 11 11 11 11 11 11 10 10 10 10 10 10 10
15 15 14 14 14 14 14 14 14 14 14 14 13 13 13 13 13 13 13 12 12 12 12 12 12 12 11 11 11 11 11 11 11 10 10 10 10 9 9 9 9 9 9
14 14 14 14 14 14 14 14 14 13 13 13 13 13 13 13 12 12 12 12 12 11 11 11 11 11 11 11 11 11 11 11 10 10 9 9 9 9 9 8 8 8 8
14 14 13 13 13 13 13 13 13 13 12 12 12 12 12 12 12 12 11 11 11 10 10 10 10 10 10 10 10 10 10 10 10 9 9 9 9 9 8 8 8 7 7
Wind_Speed
4 5 3 3 3 4 5 4 3 3 3 4 3 4 3 3 4 4 9 9 7 7 7 8 8 8 8 8 8 9 8 8 9 8 8 7 7 7 7 7 7 6 6
4 4 5 4 3 3 3 3 3 3 2 3 3 3 3 3 4 3 6 9 9 7 7 7 8 8 8 8 8 8 8 8 8 8 8 7 7 7 7 7 7 6 6
5 4 4 4 4 4 4 3 3 3 3 3 3 4 4 3 5 4 4 5 9 10 8 7 7 8 8 8 8 9 9 9 9 9 9 8 8 8 8 8 7 7 7
5 5 4 4 4 4 4 3 3 3 2 3 3 3 3 4 5 5 5 5 5 7 11 10 8 8 8 9 9 10 10 10 10 10 10 10 9 9 9 9 9 8 8
6 6 5 3 5 4 4 4 4 4 4 3 4 4 3 4 4 5 4 5 6 5 6 12 11 10 10 10 10 10 10 11 11 11 11 11 11 11 11 11 10 10 10
7 7 6 5 5 4 4 3 3 3 3 4 4 3 4 4 5 4 5 5 6 7 7 7 9 12 13 11 11 11 11 11 12 12 13 13 13 12 12 12 12 12 12
8 7 5 5 5 4 4 5 4 5 5 4 3 4 4 5 5 5 6 5 6 6 6 7 8 6 9 15 14 12 12 12 12 13 14 14 14 14 14 14 13 13 13
9 9 8 7 6 4 5 5 5 5 4 5 4 4 4 4 6 6 6 6 7 7 8 9 8 8 8 7 11 15 13 13 13 14 15 15 15 15 15 15 15 15 15
10 9 9 8 6 7 6 6 6 7 5 5 5 4 3 2 2 5 6 6 6 6 7 7 9 8 9 8 7 13 15 14 13 14 14 15 16 17 17 17 16 16 16
9 9 9 8 7 6 5 7 7 6 7 6 5 5 5 4 3 2 5 6 7 7 7 7 7 8 9 9 8 8 12 14 14 14 14 14 15 17 17 18 17 17 17
8 8 8 8 7 7 7 6 5 7 7 7 6 5 5 5 6 5 4 4 5 6 7 7 7 6 7 8 8 9 11 13 14 14 14 14 15 16 17 18 18 17 17
5 7 8 7 7 7 7 7 6 8 7 7 6 6 5 5 5 5 5 6 5 4 5 5 6 6 7 8 9 7 11 13 13 14 15 15 14 15 16 17 17 18 17
6 6 6 6 6 7 7 7 7 7 7 7 7 6 6 6 6 6 6 6 6 5 4 5 6 6 6 7 6 7 10 13 14 14 14 14 14 14 14 14 15 16 16
6 6 7 6 7 7 7 7 6 7 7 7 8 6 6 6 6 6 6 6 6 6 5 5 4 4 4 5 4 6 7 11 13 13 12 12 13 13 13 13 13 14 14
5 6 6 6 6 6 6 6 5 6 6 7 7 7 7 6 6 6 6 7 7 7 6 4 4 2 3 3 2 5 5 5 8 9 9 10 10 10 11 12 12 12 12
5 5 6 6 6 6 6 6 6 6 6 6 6 6 6 7 6 6 7 6 7 7 7 5 3 3 2 3 1 2 1 3 3 4 6 7 7 7 8 9 10 11 11
4 4 5 5 6 6 6 6 6 6 7 6 6 7 7 7 6 6 6 7 7 7 8 7 4 2 2 3 2 2 2 1 1 4 4 3 3 4 5 6 7 7 8
3 4 5 5 6 6 5 6 7 6 6 6 6 6 6 5 6 6 6 7 7 7 7 8 5 3 3 3 2 2 2 2 1 5 5 3 3 2 2 3 4 5 6
3 3 4 4 4 4 5 6 5 5 5 6 5 5 5 5 6 5 6 6 5 6 5 6 6 3 3 3 2 2 2 1 1 4 6 6 5 5 4 4 2 2 3
2 2 3 3 3 3 4 4 4 4 4 4 4 3 3 4 4 5 5 5 5 5 4 4 5 4 3 2 2 3 2 1 1 1 4 5 7 8 7 6 5 4 4
1 1 1 2 2 2 2 2 3 3 3 2 1 1 1 2 3 2 2 2 3 3 3 3 3 2 2 2 2 3 2 1 1 1 0 1 3 4 5 5 5 5 6
1 2 1 1 1 1 3 2 0 1 0 0 0 1 0 1 3 3 4 5 4 2 3 2 2 2 2 2 2 2 2 2 1 1 0 1 2 2 4 6 7 7 7
3 3 3 3 3 4 5 4 2 1 2 1 1 1 1 2 1 2 3 4 6 7 4 2 2 2 3 3 2 1 1 1 1 1 0 1 2 2 4 7 9 8 8
3 3 4 4 4 5 6 5 4 3 3 3 3 2 2 2 3 1 3 5 6 6 6 4 3 4 4 4 3 2 0 1 1 2 2 1 1 1 3 5 7 7 6
4 4 4 5 5 5 7 5 2 4 4 5 4 5 3 3 5 3 5 6 6 5 10 13 12 11 13 12 8 2 1 0 1 2 3 1 0 0 1 2 4 5 5
5 5 5 5 6 6 7 6 3 4 4 4 4 5 8 6 7 5 5 5 6 5 5 7 8 9 10 12 12 7 4 3 2 2 4 3 1 1 0 1 2 2 3
Wind_Direction
165 149 143 155 162 146 157 169 152 136 147 147 145 137 132 125 124 133 131 145 158 167 168 166 165 164 165 166 167 168 168 168 166 165 166 167 169 170 170 167 167 169 170
168 168 168 173 171 173 161 173 156 166 179 154 157 146 162 146 136 166 146 152 167 177 181 180 176 177 179 180 180 180 180 182 180 180 181 183 184 183 184 182 180 179 180
183 192 182 188 181 172 173 192 179 187 184 177 166 160 166 169 156 179 176 169 169 179 187 191 190 193 196 195 195 195 195 195 193 193 195 197 197 198 199 197 194 193 193
198 208 202 193 184 198 193 189 202 199 190 190 178 186 168 171 180 188 191 193 190 180 182 190 199 205 210 212 211 211 208 207 205 205 206 208 209 210 210 207 206 205 205
208 213 212 197 202 209 211 223 188 210 196 201 189 187 195 191 191 198 199 202 197 203 189 176 195 208 217 221 222 220 217 215 215 214 214 216 218 217 216 214 215 215 216
213 222 215 206 218 211 214 225 214 224 221 219 223 187 207 199 207 202 214 210 207 210 214 197 197 204 211 222 227 226 225 223 222 221 221 223 223 222 221 221 223 224 224
217 221 229 207 221 219 229 219 219 210 220 220 225 222 214 216 215 211 219 222 215 217 222 220 224 221 204 209 220 227 230 229 227 226 226 226 226 225 225 225 226 226 227
217 215 224 223 220 219 230 233 230 234 226 214 237 242 231 206 213 214 211 216 221 216 218 220 222 226 243 223 206 212 224 230 232 231 229 229 229 227 226 226 228 229 230
218 223 221 228 227 231 225 230 229 230 235 227 235 254 268 252 211 194 212 220 221 223 226 222 221 222 231 239 226 207 213 224 231 234 233 232 232 230 230 230 231 232 233
219 221 224 228 229 233 225 232 230 231 237 238 226 241 268 304 283 242 210 205 215 225 235 237 231 223 227 233 229 227 213 223 229 234 236 234 234 233 233 234 235 235 235
221 224 224 226 224 230 227 235 235 238 235 242 243 237 240 243 253 265 265 245 221 220 218 227 235 234 227 232 230 222 212 224 229 233 236 235 235 236 235 235 236 237 238
220 223 225 225 223 224 220 223 228 233 243 248 253 251 247 249 249 253 258 256 249 233 223 224 232 233 231 233 232 213 212 223 230 235 237 237 237 239 239 239 238 239 240
216 217 221 221 226 224 221 221 222 238 238 240 243 249 254 258 266 268 267 270 269 257 235 233 231 235 242 242 238 215 222 225 231 235 238 240 241 241 241 241 241 239 239
216 219 219 219 223 227 226 220 226 229 236 238 243 247 254 254 259 261 268 274 270 262 245 245 242 240 254 256 254 223 233 219 228 233 236 239 240 240 238 238 239 240 240
214 216 219 217 221 223 224 223 228 232 235 239 242 237 242 248 251 258 257 260 267 272 266 245 246 246 259 257 281 252 249 207 214 227 232 235 239 241 241 240 239 239 238
218 219 218 218 220 218 216 222 227 232 237 241 249 254 252 253 253 251 253 255 259 264 272 277 259 270 287 276 207 252 251 129 166 206 221 227 232 236 239 239 238 235 233
211 217 219 219 221 220 218 217 226 231 235 240 244 245 247 257 261 259 254 253 254 255 259 267 259 253 246 273 275 250 248 235 120 146 174 199 220 229 230 230 230 228 226
215 218 219 222 225 225 224 224 228 232 235 241 246 251 257 255 253 260 261 257 256 256 257 263 266 256 238 246 250 258 268 255 88 107 119 123 128 142 168 202 214 214 214
212 213 212 219 228 231 231 232 233 238 243 248 250 253 262 266 263 261 261 262 262 257 254 260 267 271 265 261 247 235 238 303 272 122 119 108 104 101 95 94 110 157 185
205 211 211 215 222 229 232 232 229 237 245 246 248 259 277 278 277 274 265 267 269 268 258 258 265 263 266 273 269 261 241 221 266 63 80 94 101 97 89 85 83 85 101
187 186 195 211 213 219 232 232 231 228 237 246 250 302 1 35 17 342 298 294 281 264 255 252 264 277 284 287 274 275 278 284 0 341 81 104 108 92 88 84 77 79 88
118 106 99 106 84 37 60 61 273 228 220 279 318 321 16 57 78 80 55 37 18 321 286 279 281 291 310 308 305 296 290 268 269 313 279 45 64 67 65 67 77 87 87
99 93 84 81 75 55 60 71 75 93 91 75 50 13 354 18 30 78 92 90 60 42 21 322 315 325 324 321 314 298 300 308 326 327 338 91 73 77 84 76 82 82 81
95 90 80 77 76 60 56 62 75 95 86 72 56 44 43 31 27 46 98 88 72 53 47 57 55 31 17 358 328 317 293 144 119 38 356 28 58 62 83 90 94 90 87
92 88 83 81 82 65 50 47 72 101 90 76 61 46 49 61 36 62 107 103 93 85 76 75 70 67 58 45 30 28 29 15 48 58 21 4 349 10 83 106 113 121 115
91 87 79 73 77 73 53 43 48 100 97 95 83 68 55 54 49 55 100 102 97 87 86 82 74 66 61 56 51 40 29 34 38 47 25 357 352 318 273 95 78 103 115
Height
1582 1583 1583 1584 1586 1587 1588 1588 1590 1590 1590 1591 1591 1592 1593 1593 1594 1595 1593 1593 1593 1594 1595 1595 1596 1597 1598 1598 1599 1600 1601 1601 1602 1603 1603 1604 1604 1605 1606 1606 1607 1607 1608
1582 1583 1583 1584 1586 1587 1588 1589 1590 1590 1591 1591 1592 1592 1593 1593 1593 1594 1595 1594 1594 1594 1595 1596 1596 1597 1598 1598 1599 1600 1600 1601 1602 1602 1603 1604 1604 1605 1605 1606 1606 1607 1607
1581 1582 1584 1585 1586 1587 1587 1588 1589 1590 1590 1591 1592 1592 1593 1593 1593 1593 1595 1595 1594 1594 1595 1595 1596 1597 1597 1598 1599 1599 1600 1601 1601 1602 1603 1603 1604 1604 1605 1605 1606 1606 1607
1580 1581 1583 1585 1585 1587 1587 1588 1589 1590 1590 1591 1592 1592 1592 1592 1593 1593 1594 1594 1595 1596 1595 1595 1595 1596 1596 1597 1598 1598 1599 1600 1600 1601 1602 1602 1603 1603 1604 1605 1605 1606 1606
1579 1581 1582 1584 1584 1586 1587 1588 1589 1590 1590 1590 1591 1591 1592 1592 1592 1593 1594 1594 1594 1595 1595 1594 1594 1595 1595 1596 1597 1597 1598 1598 1599 1600 1600 1601 1601 1602 1602 1603 1604 1604 1605
1578 1580 1581 1582 1584 1585 1586 1587 1587 1588 1589 1589 1591 1591 1591 1591 1592 1592 1592 1593 1594 1594 1595 1595 1594 1594 1594 1595 1595 1596 1596 1597 1597 1598 1598 1599 1600 1600 1601 1601 1602 1602 1603
1577 1578 1580 1581 1582 1584 1585 1586 1587 1587 1588 1589 1590 1590 1590 1590 1590 1590 1591 1591 1592 1592 1593 1593 1593 1594 1593 1593 1593 1594 1594 1595 1595 1596 1596 1597 1597 1598 1598 1599 1599 1600 1600
1574 1576 1577 1579 1581 1582 1583 1584 1585 1586 1587 1588 1588 1588 1588 1589 1588 1589 1589 1589 1590 1590 1591 1591 1591 1591 1592 1592 1592 1592 1592 1592 1593 1593 1594 1594 1595 1595 1596 1596 1597 1597 1598
1572 1574 1575 1577 1578 1580 1581 1581 1583 1584 1585 1586 1587 1588 1587 1586 1586 1587 1587 1587 1588 1588 1589 1589 1589 1589 1589 1590 1590 1589 1590 1590 1590 1591 1591 1592 1592 1592 1593 1593 1594 1594 1595
1569 1571 1573 1574 1576 1577 1578 1579 1581 1582 1583 1584 1585 1585 1586 1585 1585 1585 1585 1585 1585 1585 1586 1587 1588 1587 1587 1587 1587 1587 1587 1587 1588 1588 1588 1589 1589 1589 1590 1590 1591 1591 1591
1566 1568 1569 1571 1572 1574 1576 1577 1578 1579 1580 1582 1583 1583 1583 1583 1584 1584 1583 1584 1584 1584 1584 1584 1584 1585 1585 1584 1584 1584 1584 1584 1585 1585 1585 1585 1586 1586 1587 1587 1587 1588 1588
1563 1565 1566 1568 1569 1571 1572 1573 1575 1576 1577 1578 1579 1580 1581 1581 1581 1581 1581 1581 1581 1581 1581 1581 1582 1582 1582 1582 1582 1581 1581 1581 1581 1582 1582 1582 1582 1583 1583 1583 1584 1584 1584
1560 1561 1563 1564 1566 1567 1569 1570 1571 1573 1574 1575 1576 1577 1578 1578 1579 1579 1579 1578 1578 1578 1578 1579 1579 1579 1579 1579 1578 1578 1578 1578 1578 1578 1578 1578 1579 1579 1579 1580 1580 1580 1580
1557 1558 1560 1561 1562 1564 1566 1567 1568 1569 1570 1571 1573 1573 1574 1575 1576 1576 1576 1576 1576 1575 1575 1576 1576 1575 1575 1575 1575 1574 1574 1574 1574 1574 1574 1575 1575 1575 1575 1575 1576 1576 1576
1555 1556 1557 1558 1560 1561 1562 1564 1565 1566 1568 1568 1569 1570 1570 1571 1572 1572 1573 1573 1574 1572 1572 1572 1572 1572 1572 1571 1571 1571 1570 1570 1570 1570 1570 1570 1570 1571 1571 1571 1571 1571 1571
1553 1554 1555 1556 1557 1558 1560 1561 1562 1563 1564 1565 1566 1566 1567 1568 1568 1568 1569 1569 1569 1569 1568 1568 1568 1568 1568 1568 1567 1567 1567 1566 1566 1566 1566 1566 1566 1566 1566 1566 1567 1567 1567
1551 1552 1553 1554 1555 1556 1557 1558 1559 1560 1561 1562 1562 1563 1563 1563 1564 1565 1565 1565 1565 1565 1564 1564 1565 1564 1564 1564 1563 1563 1563 1563 1562 1562 1561 1561 1562 1562 1562 1562 1562 1562 1562
1549 1550 1551 1551 1552 1553 1554 1555 1556 1557 1558 1559 1559 1559 1560 1560 1559 1560 1560 1560 1560 1560 1561 1560 1560 1561 1560 1560 1559 1559 1559 1559 1559 1557 1557 1557 1557 1557 1557 1557 1557 1557 1557
1548 1548 1549 1549 1550 1551 1551 1552 1553 1554 1555 1555 1556 1556 1556 1556 1555 1555 1555 1556 1556 1556 1556 1556 1556 1556 1557 1556 1556 1555 1555 1555 1555 1554 1553 1552 1552 1552 1552 1552 1552 1552 1552
1546 1547 1547 1547 1548 1548 1549 1549 1550 1551 1551 1552 1552 1552 1552 1552 1552 1551 1551 1551 1552 1552 1552 1552 1552 1553 1553 1553 1552 1552 1552 1552 1551 1551 1550 1549 1548 1548 1548 1548 1548 1548 1547
1545 1545 1545 1545 1546 1546 1546 1547 1547 1548 1549 1549 1549 1549 1549 1549 1548 1548 1548 1548 1548 1548 1549 1549 1549 1549 1549 1549 1549 1549 1549 1548 1547 1547 1547 1546 1546 1545 1544 1544 1543 1543 1543
1544 1544 1544 1544 1544 1544 1545 1545 1546 1546 1546 1547 1547 1547 1547 1546 1546 1546 1546 1546 1546 1546 1546 1547 1546 1546 1546 1546 1546 1546 1545 1545 1544 1544 1544 1544 1543 1542 1541 1540 1540 1540 1540
1542 1543 1543 1542 1542 1543 1543 1543 1544 1544 1545 1545 1545 1545 1545 1545 1544 1544 1544 1544 1544 1544 1544 1544 1544 1544 1544 1544 1543 1543 1542 1542 1541 1541 1542 1541 1541 1540 1539 1538 1538 1537 1537
1541 1541 1541 1541 1541 1541 1542 1542 1543 1543 1543 1543 1543 1543 1543 1542 1542 1542 1543 1542 1542 1542 1542 1542 1542 1541 1541 1541 1540 1541 1540 1539 1539 1539 1539 1539 1539 1539 1538 1537 1536 1536 1536
1540 1540 1540 1540 1541 1541 1541 1541 1542 1542 1542 1542 1542 1541 1542 1541 1541 1541 1541 1541 1541 1541 1541 1540 1540 1539 1539 1538 1538 1538 1538 1538 1537 1537 1537 1537 1537 1537 1537 1536 1535 1535 1534
1540 1540 1540 1540 1540 1540 1541 1541 1541 1541 1541 1541 1541 1541 1540 1540 1540 1540 1540 1540 1540 1541 1541 1540 1539 1539 1538 1537 1536 1536 1536 1536 1536 1536 1535 1536 1536 1536 1536 1536 1535 1534 1533